^^
Station Historical Data
 
Daily Summary for February 19, 2018 Units:  Metric    English   Both
« Previous Day
Next Day »
Daily Weekly Monthly Yearly Custom
  Current: High: Low: Average:
Temperature: -14.7 °C -17.8 °C -19.6 °C -17.7 °C
Dew Point: -18.6 °C -17.8 °C -21.1 °C -20.2 °C
Humidity: 61 % Humidity % 56 % 72 %
Wind Speed: 3.1 km/h 0 km/h 0 km/h 6.6 km/h
Wind Gust: 0 km/h 0 km/h - -
Wind:SSE - - SSE
Pressure: 34544 hPa 0 hPa 34533.8 hPa -
Precipitation: 0 mm      
Historical Graphs
 
 
Tabular Data for February 19, 2018
Time Temperature Dew Point Pressure Wind Wind Speed Wind Gust Humidity Rainfall Rate (Hourly) solar Conditions
-17.8 °C -17.8 °C 0 hPa Calm     Humidity % 0 mm SolarRadiationWatts/m^2 W/m2 Conditions
00:04 -19.6 °C -21.1 °C 34797.9 hPa South 11.9 km/h 11.9 km/h 82 % 0 mm 0.0 W/m2 SKC
00:09 -19.6 °C -21.1 °C 34797.9 hPa South 9 km/h 9 km/h 82 % 0 mm 0.0 W/m2 SKC
00:14 -19.6 °C -21 °C 34797.9 hPa South 11.9 km/h 11.9 km/h 82 % 0 mm 0.0 W/m2 SKC
00:19 -19.6 °C -21 °C 34797.9 hPa South 15 km/h 15 km/h 82 % 0 mm 0.0 W/m2 SCT
00:24 -19.6 °C -21.1 °C 34797.9 hPa SSE 15 km/h 15 km/h 81 % 0 mm 0.0 W/m2 SCT
00:30 -19.5 °C -21 °C 34797.9 hPa SSE 7.7 km/h 15.6 km/h 81 % 0 mm 0.0 W/m2 SCT
00:35 -19.4 °C -21 °C 34797.9 hPa SSE 5.1 km/h 15.6 km/h 81 % 0 mm 0.0 W/m2 SCT
00:39 -19.4 °C -21 °C 34797.9 hPa SE 10.3 km/h 10.3 km/h 81 % 0 mm 0.0 W/m2 SCT
00:44 -19.4 °C -21 °C 34797.9 hPa SSE 9 km/h 9 km/h 81 % 0 mm 0.0 W/m2 SCT
00:49 -19.4 °C -21 °C 34784.4 hPa South 9 km/h 9.3 km/h 81 % 0 mm 0.0 W/m2 SCT
00:55 -19.4 °C -20.9 °C 34784.4 hPa South 7.7 km/h 15.6 km/h 81 % 0 mm 0.0 W/m2 SCT
01:00 -19.3 °C -20.9 °C 34784.4 hPa South 7.7 km/h 15.6 km/h 81 % 0 mm 0.0 W/m2 SCT
01:05 -19.3 °C -20.9 °C 34784.4 hPa SSE 5.1 km/h 10.3 km/h 80 % 0 mm 0.0 W/m2 SCT
01:10 -19.3 °C -20.9 °C 34784.4 hPa SSE 5.1 km/h 7.7 km/h 80 % 0 mm 0.0 W/m2 SCT
01:15 -19.3 °C -21 °C 34784.4 hPa SSE 5.1 km/h 12.9 km/h 80 % 0 mm 0.0 W/m2 OVC
01:20 -19.3 °C -21 °C 34784.4 hPa SSE 5.1 km/h 10.3 km/h 80 % 0 mm 0.0 W/m2 OVC
01:25 -19.4 °C -21.1 °C 34774.2 hPa SSE 2.6 km/h 10.3 km/h 80 % 0 mm 0.0 W/m2 OVC
01:30 -19.4 °C -21.1 °C 34774.2 hPa Calm   7.7 km/h 80 % 0 mm 0.0 W/m2 OVC
01:35 -19.5 °C -21.1 °C 34774.2 hPa Calm     80 % 0 mm 0.0 W/m2 OVC
01:40 -19.4 °C -21.1 °C 34774.2 hPa Calm     80 % 0 mm 0.0 W/m2 OVC
01:45 -19.4 °C -20.9 °C 34774.2 hPa Calm   2.6 km/h 81 % 0 mm 0.0 W/m2 OVC
01:50 -19.3 °C -20.9 °C 34774.2 hPa SSE 2.6 km/h 7.7 km/h 81 % 0 mm 0.0 W/m2 OVC
01:55 -19.3 °C -20.9 °C 34774.2 hPa SSE 2.6 km/h 10.3 km/h 81 % 0 mm 0.0 W/m2 OVC
01:59 -19.2 °C -20.9 °C 34774.2 hPa SE 9 km/h 9 km/h 80 % 0 mm 0.0 W/m2 OVC
02:05 -19.1 °C -20.8 °C 34774.2 hPa Calm   2.6 km/h 80 % 0 mm 0.0 W/m2 OVC
02:10 -19.1 °C -20.8 °C 34774.2 hPa ESE 2.6 km/h 10.3 km/h 79 % 0 mm 0.0 W/m2 OVC
02:14 -19 °C -20.8 °C 34774.2 hPa South 7.7 km/h 8.5 km/h 79 % 0 mm 0.0 W/m2 OVC
02:19 -18.9 °C -20.8 °C 34774.2 hPa SSE 11.9 km/h 11.9 km/h 78 % 0 mm 0.0 W/m2 OVC
02:24 -18.9 °C -20.8 °C 34774.2 hPa South 9 km/h 9 km/h 78 % 0 mm 0.0 W/m2 OVC
02:30 -18.9 °C -20.8 °C 34774.2 hPa SSE 5.1 km/h 10.3 km/h 78 % 0 mm 0.0 W/m2 OVC
02:35 -18.9 °C -20.9 °C 34774.2 hPa SSE 2.6 km/h 7.7 km/h 77 % 0 mm 0.0 W/m2 OVC
02:40 -19 °C -20.9 °C 34774.2 hPa SSE 2.6 km/h 7.7 km/h 77 % 0 mm 0.0 W/m2 OVC
02:45 -19 °C -20.9 °C 34774.2 hPa SSE 5.1 km/h 10.3 km/h 77 % 0 mm 0.0 W/m2 OVC
02:50 -19 °C -20.9 °C 34774.2 hPa Calm     77 % 0 mm 0.0 W/m2 OVC
02:55 -19 °C -20.9 °C 34774.2 hPa Calm     77 % 0 mm 0.0 W/m2 OVC
03:00 -19 °C -21 °C 34774.2 hPa Calm     76 % 0 mm 0.0 W/m2 OVC
03:05 -19 °C -20.9 °C 34774.2 hPa Calm     77 % 0 mm 0.0 W/m2 OVC
03:10 -19 °C -20.9 °C 34774.2 hPa Calm     77 % 0 mm 0.0 W/m2 OVC
03:15 -19.1 °C -21 °C 34774.2 hPa Calm     77 % 0 mm 0.0 W/m2 BKN
03:20 -19.1 °C -21 °C 34774.2 hPa Calm     77 % 0 mm 0.0 W/m2 BKN
03:25 -19.1 °C -21 °C 34760.7 hPa Calm     77 % 0 mm 0.0 W/m2 BKN
03:30 -19.1 °C -21 °C 34760.7 hPa Calm     77 % 0 mm 0.0 W/m2 BKN
03:35 -19.1 °C -21 °C 34760.7 hPa Calm     77 % 0 mm 0.0 W/m2 BKN
03:40 -19.1 °C -21.1 °C 34774.2 hPa Calm     77 % 0 mm 0.0 W/m2 BKN
03:45 -19.1 °C -21.1 °C 34760.7 hPa Calm     77 % 0 mm 0.0 W/m2 BKN
03:50 -19.2 °C -21 °C 34760.7 hPa Calm   2.6 km/h 78 % 0 mm 0.0 W/m2 BKN
03:55 -19.1 °C -21 °C 34760.7 hPa Calm     78 % 0 mm 0.0 W/m2 BKN
04:00 -19.2 °C -21.1 °C 34760.7 hPa Calm     77 % 0 mm 0.0 W/m2 BKN
04:05 -19.2 °C -21 °C 34750.5 hPa Calm     78 % 0 mm 0.0 W/m2 BKN
04:10 -19.2 °C -21 °C 34750.5 hPa SE 3.1 km/h   78 % 0 mm 0.0 W/m2 BKN
04:15 -19.2 °C -21 °C 34740.4 hPa Calm     78 % 0 mm 0.0 W/m2 BKN
04:20 -19.2 °C -21 °C 34740.4 hPa Calm     78 % 0 mm 0.0 W/m2 BKN
04:25 -19.2 °C -21 °C 34740.4 hPa Calm     78 % 0 mm 0.0 W/m2 BKN
04:30 -19.2 °C -20.9 °C 34750.5 hPa Calm     79 % 0 mm 0.0 W/m2 BKN
04:36 -19.2 °C -20.9 °C 34750.5 hPa Calm     79 % 0 mm 0.0 W/m2 BKN
04:41 -19.2 °C -20.9 °C 34750.5 hPa ESE 9 km/h 9 km/h 79 % 0 mm 0.0 W/m2 BKN
04:46 -19.2 °C -20.9 °C 34750.5 hPa SE 6 km/h 6 km/h 79 % 0 mm 0.0 W/m2 BKN
04:51 -19.2 °C -20.9 °C 34750.5 hPa East 6 km/h 6 km/h 79 % 0 mm 0.0 W/m2 BKN
04:56 -19.2 °C -20.9 °C 34760.7 hPa ENE 6 km/h 6 km/h 79 % 0 mm 0.0 W/m2 BKN
05:01 -19.2 °C -21 °C 34750.5 hPa Calm     79 % 0 mm 0.0 W/m2 BKN
05:06 -19.2 °C -21 °C 34750.5 hPa Calm     79 % 0 mm 0.0 W/m2 BKN
05:11 -19.3 °C -21 °C 34750.5 hPa Calm     79 % 0 mm 0.0 W/m2 BKN
05:16 -19.3 °C -21 °C 34740.4 hPa Calm     79 % 0 mm 0.0 W/m2 BKN
05:21 -19.3 °C -21 °C 34750.5 hPa East 6 km/h 6 km/h 79 % 0 mm 0.0 W/m2 BKN
05:26 -19.3 °C -21 °C 34750.5 hPa SSE 9 km/h 9 km/h 79 % 0 mm 0.0 W/m2 BKN
05:31 -19.2 °C -20.9 °C 34740.4 hPa Calm     80 % 0 mm 0.0 W/m2 BKN
05:36 -19.3 °C -21 °C 34740.4 hPa South 3.1 km/h 3.1 km/h 79 % 0 mm 0.0 W/m2 BKN
05:41 -19.3 °C -20.9 °C 34726.8 hPa Calm     80 % 0 mm 0.0 W/m2 BKN
05:46 -19.3 °C -20.9 °C 34726.8 hPa NE 6 km/h   80 % 0 mm 0.0 W/m2 BKN
05:51 -19.2 °C -20.9 °C 34726.8 hPa South 6 km/h 6 km/h 80 % 0 mm 0.0 W/m2 BKN
05:56 -19.2 °C -20.8 °C 34726.8 hPa East 3.1 km/h   80 % 0 mm 0.0 W/m2 BKN
06:01 -19.1 °C -20.8 °C 34726.8 hPa SSW 11.9 km/h 11.9 km/h 80 % 0 mm 0.0 W/m2 BKN
06:06 -19.1 °C -20.8 °C 34726.8 hPa SSE 11.9 km/h 11.9 km/h 79 % 0 mm 0.0 W/m2 BKN
06:11 -19.1 °C -20.8 °C 34716.7 hPa SSW 6 km/h 6 km/h 79 % 0 mm 0.0 W/m2 BKN
06:16 -19 °C -20.8 °C 34716.7 hPa East 9 km/h 9 km/h 79 % 0 mm 0.0 W/m2 BKN
06:21 -19.1 °C -20.8 °C 34716.7 hPa SE 9 km/h 9 km/h 79 % 0 mm 0.0 W/m2 BKN
06:31 -19 °C -20.7 °C 34703.1 hPa East 15 km/h 15 km/h 79 % 0 mm 0.0 W/m2 BKN
06:36 -19 °C -20.7 °C 34703.1 hPa SSE 10.3 km/h 10.3 km/h 79 % 0 mm 0.0 W/m2 BKN
06:41 -18.9 °C -20.7 °C 34703.1 hPa SSW 6 km/h 6 km/h 79 % 0 mm 0.0 W/m2 BKN
06:46 -18.9 °C -20.7 °C 34703.1 hPa South 7.7 km/h 7.7 km/h 79 % 0 mm 0.0 W/m2 BKN
06:51 -18.9 °C -20.7 °C 34703.1 hPa East 3.1 km/h 3.1 km/h 79 % 0 mm 5.0 W/m2 BKN
06:56 -18.9 °C -20.7 °C 34703.1 hPa ESE 11.9 km/h 11.9 km/h 79 % 0 mm 9.0 W/m2 BKN
07:01 -18.9 °C -20.7 °C 34703.1 hPa SSE 11.9 km/h 11.9 km/h 79 % 0 mm 14.0 W/m2 BKN
07:06 -18.9 °C -20.7 °C 34703.1 hPa ENE 6 km/h   79 % 0 mm 16.0 W/m2 BKN
07:11 -18.9 °C -20.7 °C 34703.1 hPa SSE 15 km/h 15 km/h 79 % 0 mm 21.0 W/m2 BKN
07:16 -18.9 °C -20.7 °C 34716.7 hPa Calm   1.3 km/h 79 % 0 mm 25.0 W/m2 BKN
07:21 -18.8 °C -20.6 °C 34716.7 hPa East 6 km/h 6 km/h 79 % 0 mm 30.0 W/m2 BKN
07:26 -18.8 °C -20.6 °C 34716.7 hPa SE 9 km/h 9 km/h 79 % 0 mm 51.0 W/m2 BKN
07:31 -18.8 °C -20.6 °C 34716.7 hPa SSW 3.1 km/h 3.1 km/h 79 % 0 mm 51.0 W/m2 BKN
07:36 -18.7 °C -20.5 °C 34703.1 hPa East 6 km/h   79 % 0 mm 40.0 W/m2 BKN
07:41 -18.8 °C -20.5 °C 34703.1 hPa East 6 km/h 6 km/h 79 % 0 mm 53.0 W/m2 BKN
07:47 -18.7 °C -20.5 °C 34693 hPa South 9 km/h 9 km/h 79 % 0 mm 56.0 W/m2 BKN
07:52 -18.7 °C -20.5 °C 34693 hPa SSE 3.1 km/h   78 % 0 mm 49.0 W/m2 BKN
07:57 -18.7 °C -20.5 °C 34682.8 hPa Calm     78 % 0 mm 49.0 W/m2 BKN
08:02 -18.6 °C -20.4 °C 34682.8 hPa South 11.9 km/h 11.9 km/h 78 % 0 mm 40.0 W/m2 BKN
08:07 -18.6 °C -20.5 °C 34682.8 hPa ESE 11.9 km/h 11.9 km/h 77 % 0 mm 42.0 W/m2 BKN
08:12 -18.6 °C -20.5 °C 34682.8 hPa ESE 17.9 km/h 17.9 km/h 77 % 0 mm 49.0 W/m2 BKN
08:17 -18.5 °C -20.4 °C 34682.8 hPa SSE 11.9 km/h 11.9 km/h 77 % 0 mm 49.0 W/m2 BKN
08:22 -18.4 °C -20.3 °C 34682.8 hPa Calm   0.3 km/h 77 % 0 mm 47.0 W/m2 BKN
08:27 -18.3 °C -20.4 °C 34682.8 hPa South 18.2 km/h 18.2 km/h 76 % 0 mm 47.0 W/m2 BKN
08:32 -18.2 °C -20.4 °C 34682.8 hPa WNW 15 km/h 15 km/h 75 % 0 mm 49.0 W/m2 BKN
08:37 -18.2 °C -20.3 °C 34682.8 hPa SSE 6 km/h 6 km/h 75 % 0 mm 51.0 W/m2 BKN
08:42 -18.1 °C -20.2 °C 34682.8 hPa Calm     75 % 0 mm 51.0 W/m2 BKN
08:47 -18 °C -20.2 °C 34669.3 hPa South 11.9 km/h 11.9 km/h 75 % 0 mm 51.0 W/m2 BKN
08:52 -17.9 °C -20.1 °C 34669.3 hPa South 15 km/h 15 km/h 75 % 0 mm 56.0 W/m2 BKN
08:57 -17.9 °C -20.2 °C 34669.3 hPa South 6 km/h 6 km/h 74 % 0 mm 67.0 W/m2 BKN
09:02 -17.8 °C -20.1 °C 34669.3 hPa South 23.8 km/h 23.8 km/h 74 % 0 mm 230.0 W/m2 BKN
09:07 -17.7 °C -20.1 °C 34669.3 hPa ESE 11.9 km/h 11.9 km/h 74 % 0 mm 294.0 W/m2 BKN
09:12 -17.7 °C -20.1 °C 34669.3 hPa SSE 15 km/h 15 km/h 73 % 0 mm 306.0 W/m2 BKN
09:17 -17.7 °C -20.1 °C 34659.1 hPa Calm     73 % 0 mm 299.0 W/m2 BKN
09:22 -17.6 °C -19.9 °C 34659.1 hPa East 9 km/h 9 km/h 73 % 0 mm 260.0 W/m2 BKN
09:27 -17.6 °C -20.1 °C 34645.6 hPa Calm   0.5 km/h 72 % 0 mm 343.0 W/m2 BKN
09:32 -17.5 °C -19.9 °C 34645.6 hPa Calm     72 % 0 mm 366.0 W/m2 BKN
09:37 -17.4 °C -20 °C 34645.6 hPa SE 11.9 km/h 11.9 km/h 71 % 0 mm 311.0 W/m2 BKN
09:42 -17.3 °C -19.9 °C 34645.6 hPa ENE 3.1 km/h 3.1 km/h 71 % 0 mm 313.0 W/m2 BKN
09:47 -17.3 °C -19.9 °C 34645.6 hPa ESE 6 km/h   70 % 0 mm 329.0 W/m2 BKN
09:52 -17.2 °C -19.9 °C 34635.4 hPa SSE 12.9 km/h 12.9 km/h 70 % 0 mm 334.0 W/m2 BKN
09:57 -17.2 °C -19.9 °C 34635.4 hPa SSE 9 km/h 9 km/h 69 % 0 mm 420.0 W/m2 BKN
10:02 -17.1 °C -19.9 °C 34635.4 hPa SE 15 km/h   69 % 0 mm 408.0 W/m2 BKN
10:07 -17 °C -19.8 °C 34635.4 hPa NE 15 km/h 15 km/h 69 % 0 mm 397.0 W/m2 BKN
10:12 -16.9 °C -19.9 °C 34625.2 hPa East 9 km/h 9 km/h 68 % 0 mm 364.0 W/m2 BKN
10:17 -16.9 °C -19.8 °C 34625.2 hPa ENE 9 km/h 9 km/h 68 % 0 mm 346.0 W/m2 BKN
10:22 -16.8 °C -19.7 °C 34611.7 hPa East 6 km/h 6 km/h 68 % 0 mm 415.0 W/m2 BKN
10:27 -16.7 °C -19.8 °C 34625.2 hPa ENE 17.9 km/h 17.9 km/h 67 % 0 mm 439.0 W/m2 BKN
10:32 -16.6 °C -19.8 °C 34625.2 hPa SSE 11.9 km/h 11.9 km/h 66 % 0 mm 462.0 W/m2 BKN
10:37 -16.6 °C -19.8 °C 34625.2 hPa ESE 9 km/h 9 km/h 66 % 0 mm 512.0 W/m2 BKN
10:42 -16.5 °C -19.7 °C 34625.2 hPa ENE 3.1 km/h   66 % 0 mm 519.0 W/m2 BKN
10:47 -16.3 °C -19.6 °C 34625.2 hPa ESE 9 km/h 9 km/h 66 % 0 mm 522.0 W/m2 BKN
10:52 -16.2 °C -19.5 °C 34625.2 hPa ESE 15 km/h 15 km/h 65 % 0 mm 540.0 W/m2 BKN
10:57 -16.1 °C -19.5 °C 34625.2 hPa SW 17.9 km/h 17.9 km/h 64 % 0 mm 550.0 W/m2 BKN
11:02 -16 °C -19.6 °C 34611.7 hPa South 9 km/h 9 km/h 63 % 0 mm 529.0 W/m2 BKN
11:07 -15.9 °C -19.6 °C 34601.5 hPa South 11.9 km/h 11.9 km/h 62 % 0 mm 519.0 W/m2 BKN
11:12 -15.9 °C -19.6 °C 34601.5 hPa South 9 km/h 9 km/h 62 % 0 mm 585.0 W/m2 BKN
11:17 -15.8 °C -19.4 °C 34611.7 hPa Calm     62 % 0 mm 573.0 W/m2 BKN
11:23 -15.7 °C -19.3 °C 34601.5 hPa ESE 3.1 km/h 3.1 km/h 62 % 0 mm 555.0 W/m2 BKN
11:28 -15.5 °C -19.3 °C 34611.7 hPa East 3.1 km/h 3.1 km/h 61 % 0 mm 566.0 W/m2 BKN
11:33 -15.4 °C -19.3 °C 34601.5 hPa South 6 km/h 6 km/h 60 % 0 mm 522.0 W/m2 BKN
11:38 -15.3 °C -19.3 °C 34601.5 hPa SSE 3.1 km/h 3.1 km/h 60 % 0 mm 462.0 W/m2 BKN
11:43 -15.3 °C -19.3 °C 34601.5 hPa SE 9 km/h 9 km/h 60 % 0 mm 541.0 W/m2 BKN
11:48 -15.3 °C -19.2 °C 34601.5 hPa ESE 15 km/h 15 km/h 60 % 0 mm 533.0 W/m2 BKN
11:53 -15.2 °C -19.3 °C 34591.4 hPa SSW 3.1 km/h 3.1 km/h 59 % 0 mm 573.0 W/m2 BKN
11:58 -15.1 °C -19.3 °C 34591.4 hPa SE 7.7 km/h 7.7 km/h 58 % 0 mm 589.0 W/m2 BKN
12:03 -15.1 °C -19.3 °C 34577.8 hPa East 6 km/h 6 km/h 58 % 0 mm 584.0 W/m2 BKN
12:08 -15.1 °C -19.4 °C 34577.8 hPa SSE 7.7 km/h 7.7 km/h 57 % 0 mm 591.0 W/m2 BKN
12:13 -14.9 °C -19.2 °C 34577.8 hPa Calm     58 % 0 mm 591.0 W/m2 BKN
12:18 -14.9 °C -19.3 °C 34577.8 hPa SSE 3.1 km/h 3.1 km/h 57 % 0 mm 548.0 W/m2 SCT
12:23 -14.8 °C -19.1 °C 34577.8 hPa SSE 9 km/h 9 km/h 58 % 0 mm 596.0 W/m2 SCT
12:28 -14.8 °C -19.1 °C 34577.8 hPa SSE 17.9 km/h 17.9 km/h 57 % 0 mm 570.0 W/m2 SCT
12:33 -14.8 °C -19.3 °C 34577.8 hPa SSE 17.9 km/h 17.9 km/h 56 % 0 mm 517.0 W/m2 SCT
12:38 -14.7 °C -19.2 °C 34577.8 hPa East 17.9 km/h 17.9 km/h 56 % 0 mm 554.0 W/m2 SCT
12:43 -14.8 °C -19.1 °C 34567.7 hPa South 15.6 km/h 15.6 km/h 57 % 0 mm 540.0 W/m2 SCT
12:48 -14.8 °C -19.1 °C 34567.7 hPa SSE 3.1 km/h 3.1 km/h 57 % 0 mm 522.0 W/m2 SCT
12:53 -14.7 °C -19.1 °C 34567.7 hPa SSW 12.9 km/h 12.9 km/h 57 % 0 mm 566.0 W/m2 SCT
12:58 -14.6 °C -19.1 °C 34567.7 hPa South 17.9 km/h 17.9 km/h 56 % 0 mm 510.0 W/m2 SCT
13:03 -14.7 °C -19.1 °C 34567.7 hPa SE 3.1 km/h 3.1 km/h 57 % 0 mm 485.0 W/m2 SCT
13:08 -14.7 °C -19.1 °C 34567.7 hPa East 9 km/h   57 % 0 mm 575.0 W/m2 SCT
13:13 -14.6 °C -19 °C 34554.1 hPa NE 6 km/h 6 km/h 57 % 0 mm 555.0 W/m2 SCT
13:18 -14.6 °C -19.1 °C 34554.1 hPa South 15 km/h 15 km/h 56 % 0 mm 431.0 W/m2 BKN
13:23 -14.6 °C -18.9 °C 34544 hPa SSE 17.9 km/h 17.9 km/h 57 % 0 mm 436.0 W/m2 BKN
13:28 -14.5 °C -19 °C 34554.1 hPa SSE 15 km/h 15 km/h 56 % 0 mm 471.0 W/m2 BKN
13:33 -14.5 °C -19 °C 34544 hPa SSE 3.1 km/h 3.1 km/h 56 % 0 mm 459.0 W/m2 BKN
13:38 -14.5 °C -18.9 °C 34544 hPa South 9 km/h 9 km/h 57 % 0 mm 485.0 W/m2 BKN
13:43 -14.4 °C -18.8 °C 34544 hPa SSE 7.7 km/h 7.7 km/h 57 % 0 mm 462.0 W/m2 BKN
13:48 -14.4 °C -18.9 °C 34544 hPa ESE 9 km/h 9 km/h 56 % 0 mm 490.0 W/m2 BKN
13:53 -14.3 °C -18.8 °C 34544 hPa SW 9 km/h 9 km/h 56 % 0 mm 545.0 W/m2 BKN
13:58 -14.3 °C -18.8 °C 34544 hPa Calm   1.6 km/h 56 % 0 mm 462.0 W/m2 BKN
14:03 -14.3 °C -18.8 °C 34544 hPa SSE 9 km/h 9 km/h 56 % 0 mm 262.0 W/m2 BKN
14:08 -14.3 °C -18.8 °C 34544 hPa SE 6 km/h   56 % 0 mm 244.0 W/m2 BKN
14:13 -14.4 °C -18.8 °C 34533.8 hPa SSE 3.1 km/h   57 % 0 mm 230.0 W/m2 BKN
14:18 -14.4 °C -18.8 °C 34544 hPa Calm   1.6 km/h 57 % 0 mm 213.0 W/m2 BKN
14:23 -14.4 °C -18.7 °C 34533.8 hPa Calm     58 % 0 mm 181.0 W/m2 BKN
14:28 -14.5 °C -18.7 °C 34533.8 hPa SSE 6 km/h 6 km/h 58 % 0 mm 132.0 W/m2 BKN
14:33 -14.6 °C -18.7 °C 34544 hPa SSE 15 km/h 15 km/h 59 % 0 mm 135.0 W/m2 BKN
14:39 -14.7 °C -18.8 °C 34544 hPa South 7.7 km/h 7.7 km/h 59 % 0 mm 156.0 W/m2 BKN
14:44 -14.7 °C -18.7 °C 34544 hPa SSE 9 km/h 9 km/h 60 % 0 mm 141.0 W/m2 BKN
14:49 -14.7 °C -18.7 °C 34544 hPa Calm     60 % 0 mm 127.0 W/m2 BKN
14:54 -14.7 °C -18.6 °C 34544 hPa SSE 3.1 km/h   61 % 0 mm 118.0 W/m2 BKN
Juneau County Weather
Compliments of Weather Underground - 2.5 mb